KBGD Airport (Hutchinson County) Information

FAA: BGD - ICAO: KBGD

KBGD Airport Location

State Texas
County Hutchinson
City Borger
KBGD Airport is 2 miles north of Borger, TX.
Latitude 35-42-03.2000N
Longitude 101-23-37.2000W
Elevation 3,055ft

KBGD Airport METARs

METAR KBGD 071851Z AUTO 09004KT 10SM BKN110 11/03 A3017 RMK AO2 SLP209 T01110033
Altimeter 30.17"
Temperature 11.1°C (52.0°F)
Wind 90° at 4KT
Clouds broken at 11,000ft
Visibility 10.0mi
Time observed: 2022-12-07T18:51:00Z

KBGD Airport Details

Status Operational
Activation October 1950
Ownership Public
Usage Public
Chart DALLAS-FT WORTH
ATC on-site No
Beacon schedule sunset-sunrise
Beacon color clear green

KBGD Airport Contacts

Owner HUTCHINSON COUNTY
Owner address COUNTY COURTHOUSE, STINNETT, TX 79083
Owner phone 806-878-4000
Manager W D MCFARLIN
Manager address 1434 CROWNHILL DR, ARLINGTON, TX 76012
Manager phone 817-991-5054

KBGD Airport (Hutchinson County) Radio Frequencies

KBGD (Airport) Radio Frequencies

UNICOM 123
Common traffic advisory frequency (CTAF) 123